Weather in Marathon

United States     24°42′42″N   81°05′26″W
temp.,
°C
wind,
m/s
gust,
m/s
humid.,
%
clouds,
%
prec.,
mm/h
press.,
hPa
HPBL,
m
23 may, mon
mon2323:00+28ese887340 0.1 10201158
02:00+28ese887149 0.3 10191115
05:00+28ese787295 0.1 10181181
08:00+28ese887365 0.3 10181168
11:00+28ese997133 0.2 10191276
14:00+28ese88705 0.3 10181172
17:00+28ese887111 0.1 10161097
20:00+28ese897118 0.2 10171212
24 may, tue
tue2423:00+28e897198 0.1 10171083
02:00+28ese91071100 0.1 10161170
05:00+27ese9973100 0.6 10151074
08:00+27ese9973100 1.1 10161135
11:00+27ese9973100 0.3 10171135
14:00+27ese9972100 0.4 10161134
17:00+27e8870100 0.3 10151088
20:00+28ese9106695 0.3 10151127
25 may, wed
wed2523:00+28e10106276 0.0 10161284
02:00+28ese996686 0.0 10161281
05:00+27ese9107399 0.1 10151162
08:00+27ese1011729 0.6 10161245
11:00+27ese101173100 0.9 10171150
14:00+27ese10107399 1.3 10171132
17:00+27ese8972100 1.3 10161084
20:00+28ese91064100 1.6 10161203
26 may, thu
thu2623:00+28ese101171100 0.0 10171206
02:00+28ese101168100 0.1 10161258
05:00+28ese9969100 0.0 10161420
08:00+28ese9969100 0.1 10171229
11:00+28ese7869100 0.0 10181172
14:00+28se7866100 0.1 10171059
17:00+28ese7867100 0.0 1016942
20:00+28ese7764100 0.0 10161142
27 may, fri
fri2723:00+28ese677067 0.0 10171007
02:00+27se787020 0.1 1015994
05:00+28se7771100 0.0 10151098
08:00+27sse66695 0.1 1016999
11:00+27se55715 0.0 1017936
14:00+28sse557110 0.1 1016927
17:00+28sse33661 0.0 1014883
20:00+27se55747 0.0 1014847